sat.trackr.live / text

‹ back to catalog

STARLINK-32779

NORAD 63030 · 2025-034B

PAYLOAD ACTIVE UNKNOWN

§ Identity

Operator
Country
US
Launch date
2025-02-18
Launch site
AFETR
Launch vehicle
Mass (kg)
RCS (m²)

Purposes: comms

External: N2YO · Heavens-Above · Gunter

§ Orbital elements

Epoch: 2026-05-25T01:32:43.118016Z

Period
94.10 min
Inclination
53.1590°
Eccentricity
0.0001159
Mean motion
15.30207413 rev/d
Perigee alt
474.4 km
Apogee alt
476.0 km
Semi-major
6,853.3 km
B*
4.0996e-4
RAAN
276.6167°
Arg perigee
101.4700°
Mean anomaly
258.6431°
Rev number
7,059

§ Raw data

STARLINK-327791 63030U 25034B   26145.06438794  .00011805  00000+0  40996-3 0  99902 63030  53.1590 276.6167 0001159 101.4700 258.6431 15.30207413 70597

JSON: /api/v1/satellites/63030 · /tle

For live sub-satellite position, see the globe view (requires WebGL).

§ Visibility from observer

Set your observer location to see the next 7 days of passes ≥ 10°. The values pass through the URL so the page stays shareable.

No JS? Fill the form by hand. The geolocation button needs JavaScript.